FW0019 Weather Reports


time (UTC)temp
C
wind
direction
speed
KPH
gust
KPH
rain 1hr
cm
rain 24hr
cm
rain mn
cm
humidity
%
barometer
mb
20260506084509 3 119 8.0 14.5 0.00 1.68 0.00 96 878.4
20260506083018 3 138 11.3 17.7 0.00 1.68 0.00 96 878.5
20260506081509 3 125 11.3 19.3 0.00 1.68 0.00 96 878.6
20260506073059 4 125 14.5 25.7 0.00 1.68 0.00 97 878.7
20260506071620 4 121 12.9 24.1 0.00 1.68 0.00 97 878.8
20260506061552 3 159 11.3 20.9 0.00 1.68 1.68 96 878.4
20260506044556 4 109 11.3 22.5 0.00 1.68 1.68 97 878.2
20260506043053 4 112 11.3 22.5 0.00 1.68 1.68 96 878.0
20260506041547 4 109 9.7 20.9 0.00 1.68 1.68 96 878.0
20260506040049 4 116 6.4 17.7 0.00 1.70 1.68 96 877.9
20260506034541 4 123 9.7 20.9 0.00 1.70 1.68 96 877.4
20260506033039 5 128 12.9 27.4 0.00 1.70 1.68 96 877.3
20260506031539 5 149 14.5 25.7 0.00 1.70 1.68 95 877.1
20260506030037 5 79 12.9 27.4 0.00 1.70 1.68 95 876.9
20260506024543 5 105 11.3 25.7 0.00 1.70 1.68 94 876.7
20260506023035 5 124 12.9 27.4 0.00 1.70 1.68 94 876.7
20260506021549 5 138 12.9 27.4 0.00 1.70 1.68 91 876.5
20260506020034 5 101 14.5 24.1 0.00 1.70 1.68 90 876.6
20260506014534 5 134 12.9 25.7 0.00 1.70 1.68 88 876.4
20260506013033 6 102 12.9 25.7 0.00 1.70 1.68 88 876.3
20260506011533 6 110 12.9 27.4 0.00 1.70 1.68 84 876.4
20260506010044 6 165 14.5 33.8 0.00 1.70 1.68 84 876.1
20260506004530 6 100 12.9 29.0 0.00 1.70 1.68 85 876.0
20260506003028 6 116 19.3 30.6 0.00 1.70 1.68 86 875.8
20260506001525 6 87 16.1 33.8 0.00 1.70 1.68 85 875.7
20260506000024 6 139 19.3 38.6 0.00 1.70 1.68 83 875.7
20260505234523 6 146 22.5 33.8 0.00 1.70 1.68 83 875.5
20260505233022 7 105 25.7 41.8 0.00 1.70 1.68 78 875.5
20260505231527 6 111 20.9 37.0 0.00 1.70 1.68 83 875.7
20260505230023 7 111 19.3 37.0 0.00 1.70 1.68 84 875.7
20260505224527 7 145 24.1 41.8 0.00 1.70 1.68 83 875.6
20260505223020 7 152 19.3 40.2 0.00 1.70 1.68 85 875.8
20260505221520 8 102 19.3 35.4 0.00 1.70 1.68 82 876.0
20260505220017 7 148 22.5 41.8 0.00 1.70 1.68 85 876.1
20260505214515 7 134 20.9 37.0 0.00 1.70 1.68 90 876.1
20260505213012 6 155 14.5 33.8 0.00 1.70 1.68 95 876.3
20260505211525 6 156 20.9 37.0 0.00 1.70 1.68 97 876.5
20260505210011 5 161 19.3 43.5 0.00 1.70 1.68 97 876.6
20260505204508 6 144 20.9 35.4 0.03 1.70 1.68 98 876.5
20260505203006 5 146 19.3 37.0 0.03 1.70 1.68 98 876.5
20260505201507 4 109 16.1 33.8 0.03 1.70 1.68 98 876.6
20260505200005 4 114 19.3 33.8 0.05 1.70 1.68 98 876.7
20260505194507 5 96 14.5 25.7 0.03 1.68 1.65 98 876.6
20260505193003 4 111 17.7 27.4 0.10 1.68 1.65 98 876.8
20260505191503 5 157 14.5 35.4 0.15 1.68 1.65 98 876.9
20260505190005 5 125 14.5 27.4 0.15 1.65 1.63 98 876.7
20260505184501 5 113 12.9 30.6 0.18 1.65 1.63 98 876.7
20260505183105 5 137 16.1 27.4 0.15 1.57 1.55 98 876.6
20260505181559 4 101 16.1 33.8 0.18 1.52 1.50 98 876.5
20260505180104 4 78 16.1 25.7 0.20 1.50 1.45 98 876.6
20260505174556 5 117 19.3 38.6 0.20 1.45 1.42 97 876.3
20260505173053 5 143 19.3 38.6 0.18 1.42 1.40 98 876.1
20260505171556 5 126 12.9 35.4 0.13 1.35 1.32 98 875.9
20260505170051 5 123 12.9 29.0 0.13 1.32 1.27 98 875.7
20260505164550 5 101 11.3 27.4 0.18 1.30 1.24 98 875.6
20260505163048 5 145 16.1 29.0 0.15 1.27 1.22 98 875.5
20260505161547 5 127 17.7 33.8 0.13 1.24 1.19 98 875.3
20260505153050 5 124 17.7 40.2 0.05 1.12 1.07 98 875.1
20260505151546 5 138 19.3 38.6 0.15 1.12 1.07 97 875.0
20260505124535 5 123 19.3 33.8 0.25 0.69 0.64 97 874.0
20260505123033 5 115 12.9 32.2 0.15 0.56 0.51 97 874.1
20260505121537 5 138 24.1 38.6 0.13 0.53 0.48 97 873.9
20260505120031 5 107 14.5 29.0 0.05 0.43 0.38 97 873.9
20260505114529 5 98 16.1 38.6 0.08 0.43 0.38 97 874.0
20260505113038 5 165 19.3 37.0 0.08 0.41 0.36 97 873.9
20260505111540 5 162 19.3 49.9 0.13 0.41 0.36 97 874.0
20260505101532 5 58 14.5 38.6 0.18 0.28 0.23 97 874.1
20260505100020 5 5 6.4 24.1 0.15 0.23 0.18 97 874.1
20260505094521 5 134 12.9 25.7 0.15 0.20 0.15 97 874.3
20260505093017 5 104 12.9 25.7 0.10 0.15 0.10 97 874.3
20260505091516 4 96 6.4 22.5 0.05 0.10 0.05 97 874.6
20260505090017 3 130 9.7 20.9 0.03 0.08 0.03 97 874.7